Nenana, AK

1:56 AM AKST en Noviembre 14, 2018 (GMT -0900)
Nenana Municipal

Tiempo Historia de PANN - Julio, 2018

Change the Weather History Date:

Jueves, Julio 12, 2018

  Actual Average Record
Temperature  
Temperatura media 60 ° F -  
Temperatura máxima 72 ° F 73 ° F 86 ° F (1956)
Temperatura mínima 54 ° F 49 ° F 45 ° F (1970)
Degree Days  
Grados día de calefacción 5    
Growing Degree Days 10 (Base 50)    
Moisture  
Punto de rocío 46 ° F    
Average Humidity 62    
Maximum Humidity 93    
Minimum Humidity 36    
Precipitación  
Precipitación 0.00 pul - - ()
Presión al nivel del mar  
Presión al nivel del mar 30.18 pul    
Viento  
Velocidad del viento 4 mph (OSO)    
Velocidad máxima del viento 8 mph    
Max Gust Speed -    
Visibilidad 10 Millas    
Eventos      
Averages and records for this station are not official NWS values.
T = Trace of Precipitation, MM = Missing Value Source: NWS Daily Summary

Daily Weather History Graph

Daily Weather History Graph

Search for Another Location

Airport or City:

Astronomía

Jul. 12, 2018 Salida Puesta
Hora real 3:54 AM AKDT 12:07 AM AKDT
Crepúsculo civil Sun does not rise Sun does not rise
Crepúsculo náutico Sun does not rise Sun does not rise
Crepúsculo astronómico Sun does not rise Sun does not rise
Luna 3:55 AM AKDT (7/12) 11:33 PM AKDT (7/12)
Horas de luz 24h 00m
Horas de luz
20h 13m
Creciente menguante, 0% of the Moon is Illuminated
Jul 12
Creciente menguante
Jul 12
Nueva
Jul 19
Cuarto creciente
Jul 27
Luna llena
Ago 4
Cuarto menguante

Hourly Weather History & Observations

Hora (AKDT) Temp. Punto de rocío Humedad Presión Visibilidad Wind Dir Velocidad del viento Velocidad de ráfagas Precip Eventos Condiciones
12:53 AM 55.0 ° F 48.0 ° F 77% 30.06 pul 10.0 mi Variable 5.8 mph - N/A   Parcialmente nublado
1:53 AM 53.1 ° F 48.0 ° F 83% 30.08 pul 10.0 mi Variable 4.6 mph - N/A   Parcialmente nublado
2:53 AM 52.0 ° F 46.0 ° F 80% 30.10 pul 10.0 mi Variable 4.6 mph - N/A   Despejado
3:53 AM 51.1 ° F 45.0 ° F 80% 30.12 pul 10.0 mi Sin viento Sin viento - N/A   Despejado
4:53 AM 46.0 ° F 43.0 ° F 89% 30.14 pul 10.0 mi Sin viento Sin viento - N/A   Despejado
5:53 AM 45.0 ° F 43.0 ° F 93% 30.17 pul 10.0 mi Sin viento Sin viento - N/A   Despejado
6:53 AM 52.0 ° F 46.0 ° F 80% 30.17 pul 10.0 mi SO 3.5 mph - N/A   Despejado
8:53 AM 59.0 ° F 46.0 ° F 62% 30.19 pul 10.0 mi OSO 8.1 mph - N/A   Despejado
9:53 AM 61.0 ° F 45.0 ° F 56% 30.20 pul 10.0 mi OSO 8.1 mph - N/A   Despejado
10:53 AM 63.0 ° F 46.0 ° F 54% 30.21 pul 10.0 mi SO 6.9 mph - N/A   Parcialmente nublado
11:53 AM 64.0 ° F 46.0 ° F 52% 30.22 pul 10.0 mi Variable 6.9 mph - N/A   Parcialmente nublado
12:53 PM 64.9 ° F 46.9 ° F 52% 30.21 pul 10.0 mi Variable 5.8 mph - N/A   Muy nublado
1:53 PM 66.9 ° F 46.0 ° F 47% 30.21 pul 10.0 mi Variable 4.6 mph - N/A   Muy nublado
2:53 PM 66.0 ° F 46.0 ° F 48% 30.21 pul 10.0 mi Oeste 3.5 mph - N/A   Muy nublado
3:53 PM 66.0 ° F 43.0 ° F 43% 30.21 pul 10.0 mi Sin viento Sin viento - N/A   Nubes dispersas
4:53 PM 68.0 ° F 43.0 ° F 40% 30.20 pul 10.0 mi NO 4.6 mph - N/A   Muy nublado
5:53 PM 71.1 ° F 44.1 ° F 38% 30.19 pul 10.0 mi SSO 6.9 mph - N/A   Muy nublado
6:53 PM 71.1 ° F 43.0 ° F 36% 30.19 pul 10.0 mi Variable 3.5 mph - N/A   Parcialmente nublado
7:53 PM 71.1 ° F 43.0 ° F 36% 30.18 pul 10.0 mi Sin viento Sin viento - N/A   Despejado
8:53 PM 70.0 ° F 43.0 ° F 38% 30.18 pul 10.0 mi Norte 3.5 mph - N/A   Despejado
9:53 PM 66.9 ° F 48.9 ° F 52% 30.18 pul 10.0 mi Sin viento Sin viento - N/A   Despejado
10:53 PM 61.0 ° F 48.9 ° F 64% 30.18 pul 10.0 mi Sin viento Sin viento - N/A   Despejado
11:53 PM 55.9 ° F 48.9 ° F 77% 30.19 pul 10.0 mi ENE 3.5 mph - N/A   Despejado